Regional Weather Roundup
Issued by NWS

Home | Current Version | Previous Version | Text Only | Print | Product List | Glossary Off
Versions: 1 2 3 4 5 6 7 8 9 10 11 12 13 14 15 16 17 18 19 20 21 22 23 24 25 26 27 28 29 30 31 32 33 34 35 36 37 38 39 40 41 42 43 44 45 46 47 48 49 50

000
ASUS43 KLSX 071707
RWRMO

WEATHER SUMMARY FOR MISSOURI
NATIONAL WEATHER SERVICE SPRINGFIELD MO
1100 AM CST SUN FEB 07 2016

NOTE: "FAIR" INDICATES FEW OR NO CLOUDS BELOW 12,000 FEET WITH NO
       SIGNIFICANT WEATHER AND/OR OBSTRUCTIONS TO VISIBILITY.
       CURRENT SKY AND/OR WEATHER CONDITIONS ARE NOT AVAILABLE FOR
       CHILLICOTHE AND FARMINGTON.

MOZ001>031-035>038-043-044-053-054-071800-
...NORTHERN AND WESTERN MISSOURI...

CITY           SKY/WX    TMP DP  RH WIND       PRES   REMARKS
KANSAS CTY INT PTSUNNY   48  28  46 NW17G23   30.05R
KANSAS C DTWN  SUNNY     50  26  39 NW17G26   30.05S
LEE`S SUMMIT   MOSUNNY   47  27  45 NW17      30.04S
ST JOSEPH      MOSUNNY   46  26  45 NW17      30.07R
CHILLICOTHE      N/A     47  30  51 NW14G20   30.00R
KIRKSVILLE     MOSUNNY   46  28  49 NW15      29.93S

$$
MOZ066>068-077>081-088>096-101>105-071800-
...SOUTHWEST MISSOURI...

CITY           SKY/WX    TMP DP  RH WIND       PRES   REMARKS
SPRINGFIELD    CLOUDY    46  28  49 W13       30.06S
JOPLIN         CLOUDY    44  29  55 SW10      30.11F

$$
MOZ032>034-039>042-045>050-055>058-069>072-071800-
...CENTRAL MISSOURI...

CITY           SKY/WX    TMP DP  RH WIND       PRES   REMARKS
COLUMBIA       PTSUNNY   45  28  51 W17       29.98F
JEFFERSON CITY MOSUNNY   48  28  46 W20G26    30.00F
ROLLA          MOSUNNY   48  28  46 W17       29.97F
SEDALIA        CLOUDY    45  29  53 W15G21    30.02S
WHITEMAN AFB   CLOUDY    45  28  53 NW10      30.01R
WARRENSBURG    CLOUDY    45  30  57 NW10G16   30.02F
OSAGE BEACH    CLOUDY    46  27  46 SW12      30.02F

$$
MOZ051-052-059>065-071800-
...EAST CENTRAL MISSOURI...

CITY           SKY/WX    TMP DP  RH WIND       PRES   REMARKS
ST LOUIS INTL  PTSUNNY   53  28  38 W20G30    29.96F
SPIRIT OF STL  SUNNY     50  28  42 W21G32    29.95F
ST CHARLES     MOSUNNY   50  29  44 W22       29.94F

$$
MOZ072>076-082>087-097>100-106>115-071800-
...SOUTH CENTRAL AND SOUTHEAST MISSOURI...

CITY           SKY/WX    TMP DP  RH WIND       PRES   REMARKS
CAPE GIRARDEAU SUNNY     51  31  46 SW14G21   30.08F
FARMINGTON     MOSUNNY   52  25  35 SW16G23   30.00F
POPLAR BLUFF   MOSUNNY   50  31  48 SW14      30.09F
WEST PLAINS    MOSUNNY   49  27  42 W12G21    30.06F

$$


USA.gov is the U.S. government's official web portal to all federal, state and local government web resources and services.